Location: Unspecified
(29.9680°N, 0.0000°E)
Time: 02:13:12
(UTC+00:00)

deb Explorer IX - All Passes

Search period start: 26 June 2019 00:00
Search period end: 06 July 2019 00:00
Orbit: 536 x 1115 km, 38.8° (Epoch: 24 June)

Date Brightness Start Highest point End Pass type
(mag) Time Alt. Az. Time Alt. Az. Time Alt. Az.
26 Jun - 10:04:27 10° SSW 10:09:55 38° SE 10:16:10 10° ENE daylight
26 Jun - 11:50:39 10° WSW 11:57:06 71° NNW 12:04:21 10° ENE daylight
26 Jun - 13:38:46 10° WNW 13:45:22 42° N 13:52:21 10° ENE daylight
26 Jun - 15:26:56 10° WNW 15:33:59 48° NNE 15:40:59 10° E daylight
26 Jun - 17:14:36 10° WNW 17:22:03 86° SSW 17:29:00 10° ESE daylight
26 Jun - 19:03:16 10° W 19:09:01 26° SW 19:14:20 10° SSE daylight
27 Jun - 09:42:41 10° SSW 09:48:01 38° SE 09:54:07 10° ENE daylight
27 Jun - 11:28:52 10° WSW 11:35:09 70° NNW 11:42:19 10° ENE daylight
27 Jun - 13:16:56 10° WNW 13:23:25 42° N 13:30:22 10° ENE daylight
27 Jun - 15:05:00 10° WNW 15:12:00 48° NNE 15:19:04 10° E daylight
27 Jun - 16:52:37 10° WNW 17:00:04 85° SSW 17:07:08 10° ESE daylight
27 Jun - 18:41:16 10° W 18:47:04 26° SW 18:52:28 10° S daylight
28 Jun - 09:20:56 10° SSW 09:26:06 38° SE 09:32:05 10° ENE daylight
28 Jun - 11:07:07 10° WSW 11:13:13 68° NNW 11:20:16 10° ENE daylight
28 Jun - 12:55:07 10° WNW 13:01:28 41° N 13:08:21 10° ENE daylight
28 Jun - 14:43:05 10° WNW 14:50:01 48° NNE 14:57:08 10° E daylight
28 Jun - 16:30:38 10° WNW 16:38:04 84° SSW 16:45:14 10° ESE daylight
28 Jun - 18:19:16 10° W 18:25:05 26° SW 18:30:34 10° S daylight
29 Jun - 08:59:11 10° SSW 09:04:13 38° SE 09:10:03 10° ENE daylight
29 Jun - 10:45:22 10° WSW 10:51:18 67° NNW 10:58:12 10° ENE daylight
29 Jun - 12:33:19 10° WNW 12:39:31 41° N 12:46:19 10° ENE daylight
29 Jun - 14:21:11 10° WNW 14:28:02 49° NNE 14:35:10 10° E daylight
29 Jun - 16:08:40 10° WNW 16:16:03 83° SSW 16:23:18 10° ESE daylight
29 Jun - 17:57:17 10° W 18:03:05 25° SW 18:08:38 10° S daylight
30 Jun - 08:37:28 10° SSW 08:42:20 38° SE 08:48:01 10° ENE daylight
30 Jun - 10:23:38 10° WSW 10:29:24 65° NNW 10:36:08 10° ENE daylight
30 Jun - 12:11:32 10° WNW 12:17:34 40° N 12:24:17 10° ENE daylight
30 Jun - 13:59:18 10° WNW 14:06:03 49° NNE 14:13:11 10° E daylight
30 Jun - 15:46:42 10° WNW 15:54:02 81° SSW 16:01:21 10° ESE daylight
30 Jun - 17:35:19 10° W 17:41:05 25° SW 17:46:41 10° S daylight
01 Jul - 08:15:44 10° SSW 08:20:27 38° SE 08:25:59 10° ENE daylight
01 Jul - 10:01:55 10° WSW 10:07:29 63° NNW 10:14:04 10° ENE daylight
01 Jul - 11:49:46 10° WNW 11:55:38 39° N 12:02:13 10° ENE daylight
01 Jul - 13:37:26 10° WNW 13:44:04 49° NNE 13:51:11 10° E daylight
01 Jul - 15:24:46 10° WNW 15:32:01 80° SSW 15:39:23 10° SE daylight
01 Jul - 17:13:21 10° W 17:19:05 25° SW 17:24:41 10° S daylight
02 Jul - 07:54:01 10° SSW 07:58:35 38° SE 08:03:57 10° ENE daylight
02 Jul - 09:40:12 10° WSW 09:45:36 61° NNW 09:52:00 10° ENE daylight
02 Jul - 11:28:01 10° WNW 11:33:42 38° N 11:40:09 10° ENE daylight
02 Jul - 13:15:35 10° WNW 13:22:05 49° NNE 13:29:10 10° E daylight
02 Jul - 15:02:51 10° WNW 15:09:59 79° SSW 15:17:23 10° SE daylight
02 Jul - 16:51:24 10° W 16:57:04 24° SW 17:02:40 10° S daylight
03 Jul - 07:32:17 10° SSW 07:36:45 38° SE 07:41:56 10° ENE daylight
03 Jul - 09:18:30 10° W 09:23:43 60° NNW 09:29:55 10° ENE daylight
03 Jul - 11:06:16 10° WNW 11:11:47 38° N 11:18:05 10° ENE daylight
03 Jul - 12:53:45 10° WNW 13:00:06 49° NNE 13:07:07 10° E daylight
03 Jul - 14:40:56 10° WNW 14:47:57 77° SSW 14:55:22 10° SE daylight
03 Jul - 16:29:29 10° W 16:35:03 24° SW 16:40:37 10° S daylight
04 Jul - 07:10:34 10° SSW 07:14:54 39° SE 07:19:56 10° ENE daylight
04 Jul - 08:56:48 10° W 09:01:51 58° NNW 09:07:52 10° ENE daylight
04 Jul - 10:44:32 10° WNW 10:49:52 37° N 10:56:01 10° ENE daylight
04 Jul - 12:31:56 10° WNW 12:38:08 49° NNE 12:45:04 10° E daylight
04 Jul - 14:19:02 10° WNW 14:25:56 76° SSW 14:33:19 10° SE daylight
04 Jul - 16:07:35 10° W 16:13:02 23° SW 16:18:33 10° S daylight
05 Jul - 06:48:51 10° SSW 06:53:04 39° SE 06:57:56 10° ENE daylight
05 Jul - 08:35:07 10° W 08:40:00 56° NNW 08:45:48 10° ENE daylight
05 Jul - 10:22:48 10° WNW 10:27:58 36° N 10:33:56 10° ENE daylight
05 Jul - 12:10:07 10° WNW 12:16:09 49° NNE 12:23:00 10° E daylight
05 Jul - 13:57:09 10° WNW 14:03:55 74° SSW 14:11:16 10° SE daylight
05 Jul - 15:45:42 10° W 15:51:00 22° SW 15:56:26 10° S daylight
